Location: Asheville, NC
(35.6000°N, 82.5500°W)
Time: 12:23:58
(UTC-04:00)

Vanguard 1 Rocket - Pass Details

Date: 11 December 2017
Orbit: 653 x 4224 km, 34.3° (Epoch: 23 June)

Event Time Altitude Azimuth Distance (km) Brightness Sun altitude
Exits shadow 02:31:37 15° 180° (S) 6,209 11.4 -59.5°
Drops below altitude 10° 02:34:27 10° 174° (S) 6,453 11.6 -59.0°
Sets 02:39:45 0° 164° (SSE) 7,021 11.9 -57.9°
